Home > Weather > Seattle > Past weeks

Flag for USA Past Weather in Seattle, Washington, USA — Yesterday and Last 2 Weeks

Now
64 °F

Passing clouds.


Feels Like: 64 °F
Forecast: 62 / 72 °F
Wind: 9 mph from South

Location: Seattle Boeing Field

Current Time: Aug 27, 2016 at 6:44:33 AM

Latest Report: Aug 27, 2016 at 5:53 AM


Visibility: 10 mi

Pressure: 29.79 "Hg

Humidity: 61%

Dew Point: 50 °F

Location of SeattleLocation

Past Weather in Seattle — Graph

°F

Seattle Temperature Yesterday

Maximum temperature yesterday: 88 °F (at 5:53 PM)
Minimum temperature yesterday: 61 °F (at 5:53 AM)
Average temperature yesterday: 77 °F

High & Low Weather Summary for the Past Weeks

 TemperatureHumidityPressure
High95 °F (Aug 19, 4:53 PM)90% (Aug 16, 6:53 AM)30.23 "Hg (Aug 16, 6:53 AM)
Low55 °F (Aug 23, 6:53 AM)14% (Aug 22, 7:53 AM)29.76 "Hg (Aug 27, 2:53 AM)
Average72 °F55%30.01 "Hg
* Reported Aug 12 4:53 AM — Aug 27 4:53 AM, Seattle, Weather by CustomWeather, © 2016

Note: Actual official high and low records may vary slightly from our data, if they occured in-between our weather recording intervals... More about our weather records

Advertising

Seattle Weather History for the Previous 24 Hours

Scroll right to see more
 ConditionsComfort  
Time TempWeatherWind HumidityBarometerVisibility
4:53 AM
Sat, Aug 27
67 °FClear.8 mph63%29.77 "Hg10 mi
3:53 AM69 °FClear.6 mph55%29.97 "Hg10 mi
2:53 AM69 °FClear.6 mph59%29.76 "Hg10 mi
1:53 AM72 °FClear.6 mph46%29.77 "Hg10 mi
12:53 AM72 °FClear.6 mph46%29.77 "Hg10 mi
11:53 PM
Fri, Aug 26
75 °FClear.6 mph34%29.78 "Hg10 mi
10:53 PM79 °FClear.6 mph30%29.79 "Hg10 mi
9:53 PM79 °FClear.6 mph30%29.79 "Hg10 mi
8:53 PM79 °FScattered clouds.6 mph44%29.78 "Hg10 mi
7:53 PM88 °FScattered clouds.6 mph22%29.78 "Hg10 mi
6:53 PM88 °FScattered clouds.6 mph22%29.80 "Hg10 mi
5:53 PM88 °FScattered clouds.6 mph22%29.80 "Hg10 mi
4:53 PM86 °FScattered clouds.7 mph33%29.84 "Hg10 mi
3:53 PM86 °FScattered clouds.10 mph33%29.86 "Hg10 mi
2:53 PM86 °FScattered clouds.10 mph33%29.86 "Hg10 mi
1:53 PM81 °FScattered clouds.9 mph39%N/A10 mi
12:53 PM81 °FScattered clouds.7 mph39%29.91 "Hg10 mi
11:53 AM79 °FScattered clouds.5 mph47%29.91 "Hg10 mi
10:53 AM73 °FPassing clouds.6 mph51%29.93 "Hg10 mi
10:03 AM73 °FPassing clouds.6 mph51%29.94 "Hg10 mi
7:53 AM70 °FScattered clouds.No wind57%29.94 "Hg10 mi
Weather by CustomWeather, © 2016

See weather overviewHow to use our weather pages